When you browse on this site, cookies collect data to enhance your experience and personalize the content and advertising you see.
Visit our Privacy Policy to learn more. By continuing to use the site, you agree to this use of cookies and data.
  • In France
  • List of Countries
  • For 7 days
  • Water Temperature
  • Satellite Maps
  • Weather Map
  • Weather Widgets
  • user-avatar
    Login

    Hourly Weather Veliko Tarnovo

    Today, 27 May, Monday

    Time Temperature Precipitation Wind Pressure Humidity
    00:00 +17°C° 0 mm 2 mps 739 mmHg 80%
    01:00 +17°C° 0 mm 2 mps 739 mmHg 81%
    02:00 +17°C° 0 mm 2 mps 739 mmHg 82%
    03:00 +17°C° 0 mm 2 mps 739 mmHg 82%
    04:00 +16°C° 0 mm 2 mps 739 mmHg 82%
    05:00 +16°C° 0 mm 2 mps 739 mmHg 82%
    06:00 +18°C° 0 mm 2 mps 739 mmHg 76%
    07:00 +20°C° 0 mm 2 mps 739 mmHg 71%
    08:00 +23°C° 0 mm 2 mps 739 mmHg 65%
    09:00 +25°C° 0 mm 3 mps 739 mmHg 60%
    10:00 +26°C° 0 mm 3 mps 739 mmHg 55%
    11:00 +28°C° 0 mm 4 mps 739 mmHg 50%
    12:00 +28°C° 0 mm 4 mps 739 mmHg 51%
    13:00 +28°C° 0 mm 4 mps 738 mmHg 51%
    14:00 +29°C° 0 mm 4 mps 738 mmHg 51%
    15:00 +29°C° 0 mm 4 mps 738 mmHg 54%
    16:00 +28°C° 0 mm 4 mps 738 mmHg 57%
    17:00 +28°C° 0 mm 4 mps 738 mmHg 60%
    18:00 +26°C° 0 mm 3 mps 737 mmHg 63%
    19:00 +24°C° 0 mm 3 mps 737 mmHg 66%
    20:00 +21°C° 0 mm 3 mps 737 mmHg 69%
    21:00 +21°C° 0 mm 4 mps 737 mmHg 68%
    22:00 +20°C° 0 mm 4 mps 737 mmHg 66%
    23:00 +20°C° 0 mm 4 mps 737 mmHg 65%

    Tomorrow, 28 May, Tuesday

    Time Temperature Precipitation Wind Pressure Humidity
    00:00 +19°C° 0 mm 4 mps 737 mmHg 66%
    01:00 +18°C° 0 mm 4 mps 737 mmHg 67%
    02:00 +18°C° 0 mm 3 mps 737 mmHg 68%
    03:00 +18°C° 0 mm 3 mps 736 mmHg 67%
    04:00 +17°C° 0 mm 3 mps 736 mmHg 66%
    05:00 +17°C° 0 mm 3 mps 736 mmHg 65%
    06:00 +19°C° 0 mm 3 mps 736 mmHg 63%
    07:00 +21°C° 0 mm 3 mps 736 mmHg 61%
    08:00 +23°C° 0 mm 4 mps 736 mmHg 58%
    09:00 +25°C° 0 mm 4 mps 736 mmHg 54%
    10:00 +27°C° 0 mm 5 mps 735 mmHg 49%
    11:00 +29°C° 0 mm 6 mps 735 mmHg 44%
    12:00 +29°C° 0 mm 6 mps 735 mmHg 44%
    13:00 +30°C° 0 mm 6 mps 734 mmHg 44%
    14:00 +30°C° 0 mm 6 mps 734 mmHg 44%
    15:00 +30°C° 0 mm 6 mps 734 mmHg 47%
    16:00 +29°C° 0 mm 6 mps 733 mmHg 49%
    17:00 +28°C° 0 mm 5 mps 733 mmHg 51%
    18:00 +26°C° 0 mm 5 mps 733 mmHg 53%
    19:00 +23°C° 0 mm 5 mps 733 mmHg 54%
    20:00 +21°C° 0 mm 5 mps 733 mmHg 55%
    21:00 +20°C° 0 mm 4 mps 733 mmHg 59%
    22:00 +19°C° 0 mm 4 mps 733 mmHg 62%
    23:00 +18°C° 0 mm 3 mps 733 mmHg 66%

    Day after tomorrow, 29 May, Wednesday

    Time Temperature Precipitation Wind Pressure Humidity
    00:00 +18°C° 0 mm 3 mps 733 mmHg 67%
    01:00 +18°C° 0 mm 3 mps 734 mmHg 68%
    02:00 +17°C° 0 mm 3 mps 734 mmHg 70%
    03:00 +17°C° 0 mm 2 mps 734 mmHg 71%
    04:00 +17°C° 0 mm 2 mps 734 mmHg 72%
    05:00 +17°C° 0 mm 2 mps 734 mmHg 73%
    06:00 +20°C° 0 mm 1 mps 734 mmHg 70%
    07:00 +22°C° 0 mm 1 mps 735 mmHg 67%
    08:00 +24°C° 0 mm 1 mps 735 mmHg 64%
    09:00 +25°C° 0.1 mm 1 mps 735 mmHg 61%
    10:00 +26°C° 0.1 mm 1 mps 735 mmHg 58%
    11:00 +27°C° 0.1 mm 1 mps 735 mmHg 55%
    12:00 +28°C° 0.2 mm 1 mps 735 mmHg 53%
    13:00 +28°C° 0.2 mm 1 mps 735 mmHg 51%
    14:00 +27°C° 0.2 mm 0 mps 735 mmHg 49%
    15:00 +27°C° 0 mm 0 mps 735 mmHg 51%
    16:00 +27°C° 0 mm 0 mps 735 mmHg 52%
    17:00 +26°C° 0 mm 0 mps 735 mmHg 54%
    18:00 +24°C° 0.2 mm 0 mps 735 mmHg 60%
    19:00 +22°C° 0.2 mm 0 mps 735 mmHg 66%
    20:00 +20°C° 0.2 mm 0 mps 735 mmHg 73%
    21:00 +19°C° 0.1 mm 0 mps 735 mmHg 76%
    22:00 +19°C° 0.1 mm 0 mps 736 mmHg 79%
    23:00 +20°C° 0.1 mm 1 mps 736 mmHg 83%

    30 May, Thursday

    Time Temperature Precipitation Wind Pressure Humidity
    00:00 +19°C° 0.1 mm 1 mps 736 mmHg 84%
    01:00 +19°C° 0.1 mm 1 mps 736 mmHg 86%
    02:00 +19°C° 0.1 mm 1 mps 736 mmHg 87%
    03:00 +18°C° 0 mm 1 mps 736 mmHg 89%
    04:00 +18°C° 0 mm 1 mps 736 mmHg 90%
    05:00 +16°C° 0 mm 1 mps 736 mmHg 91%
    06:00 +19°C° 0.1 mm 1 mps 736 mmHg 87%
    07:00 +20°C° 0.1 mm 1 mps 736 mmHg 83%
    08:00 +21°C° 0.1 mm 2 mps 736 mmHg 79%
    09:00 +23°C° 0.5 mm 2 mps 737 mmHg 76%
    10:00 +24°C° 0.5 mm 2 mps 737 mmHg 74%
    11:00 +25°C° 0.5 mm 3 mps 737 mmHg 72%
    12:00 +25°C° 1.2 mm 2 mps 736 mmHg 72%
    13:00 +25°C° 1.2 mm 2 mps 736 mmHg 72%
    14:00 +25°C° 1.2 mm 2 mps 736 mmHg 72%
    15:00 +25°C° 2 mm 2 mps 736 mmHg 72%
    16:00 +25°C° 2 mm 1 mps 735 mmHg 73%
    17:00 +25°C° 2 mm 1 mps 735 mmHg 74%
    18:00 +23°C° 0.5 mm 1 mps 735 mmHg 79%
    19:00 +22°C° 0.5 mm 1 mps 735 mmHg 84%
    20:00 +20°C° 0.5 mm 1 mps 735 mmHg 88%
    21:00 +19°C° 0.3 mm 1 mps 736 mmHg 90%
    22:00 +19°C° 0.3 mm 1 mps 736 mmHg 92%
    23:00 +17°C° 0.3 mm 2 mps 736 mmHg 94%

    31 May, Friday

    Time Temperature Precipitation Wind Pressure Humidity
    00:00 +17°C° 0 mm 2 mps 736 mmHg 95%
    01:00 +16°C° 0 mm 2 mps 736 mmHg 96%
    02:00 +16°C° 0 mm 3 mps 736 mmHg 97%
    03:00 +16°C° 0.1 mm 3 mps 736 mmHg 96%
    04:00 +16°C° 0.1 mm 2 mps 736 mmHg 95%
    05:00 +16°C° 0.1 mm 2 mps 736 mmHg 93%
    06:00 +16°C° 0 mm 3 mps 736 mmHg 92%
    07:00 +17°C° 0 mm 3 mps 736 mmHg 90%
    08:00 +17°C° 0 mm 3 mps 736 mmHg 88%
    09:00 +18°C° 0 mm 3 mps 736 mmHg 84%
    10:00 +19°C° 0 mm 3 mps 736 mmHg 80%
    11:00 +20°C° 0 mm 3 mps 736 mmHg 77%
    12:00 +21°C° 0.4 mm 3 mps 735 mmHg 76%
    13:00 +21°C° 0.4 mm 3 mps 735 mmHg 76%
    14:00 +21°C° 0.4 mm 2 mps 735 mmHg 75%
    15:00 +21°C° 0.7 mm 3 mps 735 mmHg 78%
    16:00 +21°C° 0.7 mm 3 mps 735 mmHg 81%
    17:00 +20°C° 0.7 mm 3 mps 735 mmHg 83%
    18:00 +19°C° 0 mm 3 mps 735 mmHg 87%
    19:00 +18°C° 0 mm 2 mps 735 mmHg 90%
    20:00 +17°C° 0 mm 2 mps 735 mmHg 93%
    21:00 +16°C° 0 mm 2 mps 735 mmHg 94%
    22:00 +16°C° 0 mm 1 mps 735 mmHg 94%
    23:00 +15°C° 0 mm 1 mps 735 mmHg 95%

    1 June, Saturday

    Time Temperature Precipitation Wind Pressure Humidity
    00:00 +15°C° 0 mm 1 mps 735 mmHg 94%
    01:00 +14°C° 0 mm 1 mps 735 mmHg 94%
    02:00 +13°C° 0 mm 1 mps 735 mmHg 94%
    03:00 +13°C° 0 mm 1 mps 735 mmHg 93%
    04:00 +13°C° 0 mm 1 mps 735 mmHg 93%
    05:00 +13°C° 0 mm 1 mps 735 mmHg 93%
    06:00 +14°C° 0 mm 1 mps 735 mmHg 88%
    07:00 +16°C° 0 mm 2 mps 735 mmHg 83%
    08:00 +18°C° 0 mm 2 mps 735 mmHg 77%
    09:00 +19°C° 0 mm 2 mps 735 mmHg 73%
    10:00 +20°C° 0 mm 2 mps 735 mmHg 68%
    11:00 +22°C° 0 mm 3 mps 734 mmHg 64%
    12:00 +22°C° 0 mm 3 mps 734 mmHg 63%
    13:00 +24°C° 0 mm 2 mps 734 mmHg 62%
    14:00 +24°C° 0 mm 2 mps 734 mmHg 62%
    15:00 +24°C° 0.6 mm 2 mps 733 mmHg 66%
    16:00 +23°C° 0.6 mm 2 mps 733 mmHg 71%
    17:00 +22°C° 0.6 mm 1 mps 733 mmHg 75%
    18:00 +20°C° 0.7 mm 2 mps 733 mmHg 80%
    19:00 +19°C° 0.7 mm 2 mps 733 mmHg 85%
    20:00 +17°C° 0.7 mm 2 mps 733 mmHg 90%
    21:00 +17°C° 0.3 mm 2 mps 734 mmHg 91%
    22:00 +16°C° 0.3 mm 2 mps 734 mmHg 92%
    23:00 +16°C° 0.3 mm 2 mps 734 mmHg 93%
    Show more